Wind_Speed
24 22 21 19 9 12 19 15 12 6 4 2 1 2 6 8 5 7 6 3 8 13 11 8 6 4 4 5 6 6 5 3 2 1 2 4 6 9 11 10 11 12 13 14 14 15 17 19 21
22 19 18 11 14 23 20 20 11 12 6 6 3 5 4 4 6 9 11 10 4 9 12 10 7 5 4 5 4 5 4 3 2 3 3 4 7 10 12 11 12 13 14 15 16 18 20 22 22
20 18 10 11 21 28 23 16 17 13 16 10 4 7 3 9 10 11 10 7 4 8 12 11 9 6 5 4 5 4 4 3 2 3 5 6 9 12 12 12 13 14 16 17 17 19 21 21 21
17 18 19 19 23 21 22 17 16 10 10 12 9 3 5 11 12 10 8 7 7 10 13 11 10 7 7 6 5 6 4 4 4 5 7 8 10 14 14 14 14 16 17 18 19 19 19 20 20
16 15 17 20 27 25 26 20 15 15 12 11 12 9 9 13 12 8 7 10 10 11 11 12 11 9 8 6 5 4 5 6 6 8 9 10 13 15 15 15 16 17 18 18 18 18 18 19 18
13 14 16 25 25 23 23 21 22 18 17 16 17 12 9 15 12 10 10 12 12 14 15 14 13 12 11 8 6 5 5 7 7 9 11 12 15 17 17 17 17 17 17 18 18 18 18 17 17
17 16 20 21 19 20 18 17 18 17 17 17 15 14 10 10 14 12 12 13 16 15 16 16 15 14 13 11 9 8 8 9 9 10 12 14 17 19 20 19 19 19 19 19 18 18 17 17 16
17 16 19 20 20 20 16 13 13 16 15 15 22 13 13 15 16 13 12 15 17 18 17 16 16 16 14 12 11 11 10 10 11 11 13 15 18 21 23 21 22 21 20 19 19 18 17 16 15
22 16 20 20 17 15 13 11 18 25 22 21 18 22 16 19 19 15 16 16 19 20 19 18 17 15 15 14 13 13 12 10 9 11 12 15 18 20 22 22 22 22 22 20 20 19 18 17 16
22 19 18 16 15 13 14 14 12 17 21 21 24 27 24 22 19 17 16 16 17 16 15 15 16 16 16 15 14 13 10 10 8 9 11 13 16 19 23 25 24 25 24 23 21 21 20 18 17
21 21 15 17 17 18 15 14 13 18 17 19 22 23 27 27 20 21 15 19 16 14 12 12 10 11 13 13 9 7 6 7 8 9 9 12 16 19 22 25 26 25 25 25 24 23 22 21 20
18 19 20 13 19 19 16 15 15 14 18 20 20 22 23 30 23 15 17 17 21 19 18 14 12 10 11 11 12 6 2 2 1 7 10 12 13 16 20 23 25 26 26 25 25 25 25 24 24
22 17 15 19 18 19 17 15 13 15 14 13 14 19 27 28 25 21 17 17 16 21 18 15 14 14 13 8 8 5 6 4 8 5 7 12 13 15 18 23 24 26 28 28 27 28 28 28 28
14 19 15 14 13 14 12 9 12 10 10 9 12 15 19 20 22 22 22 17 18 19 19 16 20 17 16 9 12 9 10 10 8 10 13 12 13 16 17 19 23 25 26 29 31 31 31 31 32
14 14 15 17 14 12 8 13 8 6 7 8 11 13 15 17 21 22 18 16 22 21 16 13 13 16 13 18 14 18 15 16 16 20 15 17 16 18 17 19 20 22 24 26 28 31 34 35 35
14 14 16 15 16 13 9 6 6 6 8 7 8 11 14 16 15 17 17 16 19 26 27 21 18 17 19 20 21 24 24 22 20 19 17 18 27 26 24 23 21 20 21 24 25 28 32 36 39
15 15 17 13 13 12 12 9 7 8 9 10 12 10 19 15 17 18 17 20 22 23 39 36 33 29 28 19 19 22 26 28 27 25 26 23 28 30 33 20 25 26 25 26 28 27 28 32 37
17 17 15 15 10 13 13 15 11 10 10 12 14 15 14 18 20 19 20 19 16 18 23 26 27 42 42 36 20 20 22 30 27 28 33 32 32 38 37 21 22 20 26 33 36 34 34 34 36
13 14 14 12 13 11 14 13 11 9 10 10 14 19 20 18 21 22 24 24 27 20 24 27 22 34 39 48 21 25 26 26 31 34 35 35 28 32 29 25 29 33 33 33 32 34 35 38 33
17 16 17 15 15 14 13 12 11 10 10 15 16 23 24 24 21 17 19 24 25 26 26 24 16 18 18 18 19 21 31 29 30 30 36 38 40 39 41 43 37 29 32 34 29 27 30 35 41
19 18 15 14 8 14 13 16 15 12 8 8 8 15 25 23 20 17 18 19 27 25 25 23 19 14 17 14 18 23 27 27 26 29 32 33 34 36 38 47 35 30 30 31 30 33 34 39 36
21 17 17 16 16 19 19 16 19 15 10 9 6 11 20 18 18 16 17 17 21 26 25 25 24 24 22 24 23 18 20 21 26 27 28 27 28 29 31 31 29 31 31 32 32 32 30 32 34
24 16 15 15 19 18 14 14 8 13 14 10 13 11 15 18 19 21 19 19 21 24 25 26 27 25 26 28 27 27 27 26 26 26 27 30 31 31 33 35 35 34 35 36 37 39 40 42 42
14 13 10 12 17 17 22 16 18 15 17 11 14 15 19 21 22 23 22 22 23 26 29 29 28 28 29 30 30 29 30 30 31 31 32 34 34 36 38 39 39 39 41 42 43 44 45 46 47
17 17 13 11 13 11 17 13 20 7 10 11 14 14 16 20 24 27 27 27 27 26 25 23 23 23 24 25 25 26 28 29 30 31 34 35 36 37 39 40 41 43 44 45 45 46 47 48 49
20 22 16 9 9 13 13 12 11 12 11 15 15 15 16 17 18 19 19 18 16 15 14 14 15 17 18 20 22 24 26 28 31 35 37 40 43 46 47 49 50 50 51 52 53 53 54 54 55
18 21 17 12 7 10 12 10 10 13 20 19 17 18 18 18 17 17 16 15 14 14 15 15 16 17 20 23 26 29 32 36 39 42 44 48 50 53 55 57 59 60 60 60 60 60 60 60 61
16 16 13 16 9 12 13 16 11 16 22 21 22 23 22 20 19 18 16 16 15 16 16 18 21 24 28 30 33 36 40 44 47 49 52 55 58 59 60 62 63 65 65 65 66 66 66 66 65
20 20 17 15 14 6 11 7 5 12 19 21 21 26 27 25 23 21 19 18 18 19 21 24 28 30 32 35 38 42 46 49 51 54 56 59 62 63 64 65 65 65 65 65 65 64 62 61 60
15 18 19 16 15 14 17 15 10 12 15 18 20 28 29 28 23 21 19 19 21 24 27 31 33 34 37 41 44 47 50 52 53 54 55 56 57 57 58 59 60 61 61 58 56 57 58 58 59
Wind_Direction
252 252 255 250 244 236 242 242 225 228 211 244 221 254 277 279 271 290 224 285 289 236 227 214 213 188 154 134 123 110 97 88 78 114 150 150 160 164 164 153 144 138 131 126 124 122 119 118 116
249 248 249 226 234 236 238 233 233 220 229 227 277 288 289 238 263 267 264 258 315 223 215 199 213 192 197 142 134 121 114 120 146 172 184 172 172 175 172 162 152 143 135 130 130 129 127 124 122
242 241 222 233 240 239 244 234 230 228 239 249 227 228 249 232 246 252 264 262 240 227 212 200 207 196 210 194 150 146 144 149 159 178 191 189 185 183 179 171 158 148 140 137 136 134 131 128 124
234 231 227 232 239 244 239 235 210 231 237 237 241 238 287 256 241 243 264 237 216 219 215 209 214 211 222 206 192 163 178 173 175 187 193 197 195 191 186 177 166 156 149 146 143 140 137 134 131
227 215 229 241 243 242 246 216 230 238 240 251 261 244 289 256 241 230 226 207 200 194 202 212 220 219 225 232 230 209 202 197 197 197 198 200 199 197 192 184 176 168 163 158 154 150 147 145 140
218 212 227 237 245 246 245 246 240 246 251 253 247 258 263 236 231 212 213 225 216 216 206 208 219 222 223 227 239 237 233 227 212 215 205 203 202 200 199 193 187 181 176 170 166 162 160 157 152
209 229 234 244 245 242 252 244 247 253 247 247 243 241 244 235 222 219 214 221 225 225 220 211 211 216 223 215 226 238 241 235 221 224 219 211 203 202 202 200 196 193 189 183 179 177 175 172 166
210 222 236 238 241 253 255 252 240 237 242 229 229 235 221 230 212 216 221 222 227 225 227 221 216 215 219 226 227 233 242 247 247 229 221 221 214 206 204 203 202 201 199 197 194 192 190 186 183
221 223 234 239 247 246 250 242 256 238 243 244 216 206 217 213 212 204 222 214 219 223 221 218 214 214 219 221 229 239 243 245 258 263 246 229 222 217 213 212 210 209 208 206 205 205 204 202 200
215 224 237 241 234 237 247 250 245 254 246 250 240 222 215 211 201 194 196 202 210 214 212 217 218 217 218 222 226 236 248 260 260 262 260 247 240 231 224 219 217 217 217 216 215 215 216 215 215
220 226 236 248 244 242 250 253 256 261 256 255 247 222 214 209 199 192 208 198 203 203 198 197 193 203 216 222 225 235 251 253 261 259 255 246 240 237 232 231 230 226 224 225 225 226 227 226 228
223 237 240 242 245 246 253 254 263 260 266 264 257 224 217 209 203 206 193 216 208 203 199 197 197 194 180 174 146 144 166 209 307 285 264 255 250 245 243 238 236 240 241 238 237 237 236 236 237
229 232 244 242 243 246 251 258 271 272 271 276 236 222 218 213 215 208 196 204 206 207 200 195 192 190 168 164 188 202 216 249 229 247 255 261 259 250 246 243 239 238 242 244 246 245 244 245 246
244 230 235 241 241 244 253 264 267 296 278 231 214 225 217 222 222 217 217 204 208 201 188 180 193 200 193 211 225 220 230 234 240 251 254 247 256 259 249 246 242 241 240 244 246 248 249 248 248
230 231 245 241 232 229 231 245 257 269 211 198 223 220 212 213 212 224 211 214 215 210 203 202 197 197 204 216 230 243 250 235 235 255 251 257 261 252 251 248 246 244 243 242 247 248 250 252 251
220 235 237 227 208 222 218 219 207 237 207 207 213 214 213 212 206 211 222 233 262 228 232 223 238 234 233 223 233 240 246 249 246 232 237 257 261 255 241 236 231 241 251 252 248 249 250 251 252
214 228 216 195 212 215 208 217 226 240 222 219 219 221 219 218 222 237 238 261 253 248 238 240 257 258 256 250 253 258 257 252 239 254 258 244 258 264 254 242 241 245 254 261 259 259 259 260 258
214 221 221 217 215 209 226 245 261 242 231 237 232 224 229 223 228 234 229 240 239 226 236 238 265 258 256 244 253 257 256 252 241 241 242 250 252 260 255 249 280 281 271 279 277 263 262 265 268
224 219 226 218 224 232 236 247 232 231 241 241 242 233 227 224 222 232 232 227 229 227 234 244 274 236 252 260 245 258 260 257 249 245 240 245 247 252 264 262 262 261 253 273 277 269 259 263 274
228 235 239 245 237 227 229 243 231 230 231 249 261 241 218 226 224 231 231 234 228 224 237 247 270 244 252 234 258 254 246 261 250 245 243 244 246 248 252 250 243 249 266 273 263 263 261 260 263
228 235 239 242 218 210 228 243 223 222 223 257 264 215 202 210 222 225 227 240 229 229 234 243 258 259 251 247 249 254 258 258 252 255 258 257 253 254 257 252 241 265 269 267 270 275 278 266 281
232 233 241 243 225 228 212 248 204 216 213 224 221 193 193 204 216 221 229 232 225 228 235 242 246 248 239 236 248 249 252 254 252 253 255 254 254 256 260 272 270 268 268 272 274 274 278 271 272
231 234 232 234 231 233 211 238 213 194 213 217 221 217 213 220 229 230 237 239 234 234 239 238 238 234 237 244 251 253 250 248 249 254 255 257 258 258 261 265 270 270 271 271 270 273 274 276 276
211 211 216 220 214 226 230 217 233 209 211 201 236 236 229 230 231 235 239 246 247 246 248 242 238 236 237 243 247 249 250 253 254 255 256 259 262 264 265 267 270 272 274 275 275 275 273 272 271
200 203 204 205 210 232 218 206 240 169 194 218 249 247 242 238 235 236 239 240 238 240 244 249 248 248 252 253 256 256 257 259 260 260 260 262 264 267 269 269 271 272 272 272 273 272 271 272 272
204 209 229 229 222 216 184 218 221 209 231 197 244 241 234 227 228 230 232 234 238 241 242 244 245 247 250 255 258 262 264 264 265 266 265 265 266 267 267 268 268 268 269 269 270 272 273 273 273
214 219 232 247 237 259 201 201 241 230 215 222 228 235 234 228 222 219 220 224 227 233 236 241 252 263 270 272 273 275 274 273 274 273 274 273 272 272 271 270 269 271 273 272 272 271 271 272 271
214 215 211 223 239 241 246 231 234 208 216 218 222 224 225 221 221 223 229 234 239 248 256 262 271 278 281 282 284 284 283 283 282 282 281 279 279 278 276 275 274 273 272 273 273 272 271 270 269
202 221 232 238 230 247 261 260 285 213 206 211 208 217 219 218 224 227 234 242 250 259 268 275 280 284 285 285 286 285 284 283 282 280 280 278 278 278 277 277 276 275 275 275 274 273 271 269 267
219 221 218 219 232 244 268 270 195 216 208 201 205 224 222 224 229 236 243 253 263 271 278 284 286 286 286 286 288 288 287 285 284 282 282 281 280 279 280 280 280 278 277 274 271 271 270 268 265
Height
3165 3167 3170 3174 3183 3176 3173 3173 3173 3173 3174 3172 3172 3173 3173 3173 3177 3177 3173 3173 3173 3173 3175 3176 3177 3177 3177 3177 3177 3177 3179 3181 3183 3184 3186 3187 3187 3188 3189 3190 3190 3190 3191 3191 3192 3193 3194 3195 3195
3162 3164 3168 3171 3174 3169 3167 3170 3170 3171 3170 3170 3171 3172 3174 3175 3171 3171 3171 3171 3171 3172 3173 3175 3176 3177 3178 3178 3179 3179 3180 3181 3183 3184 3185 3187 3188 3189 3191 3191 3192 3192 3192 3193 3194 3195 3196 3197 3197
3158 3162 3169 3167 3166 3163 3164 3166 3169 3167 3167 3168 3170 3170 3170 3170 3167 3168 3169 3169 3170 3171 3173 3174 3176 3176 3178 3178 3178 3179 3180 3182 3184 3185 3186 3186 3188 3190 3192 3193 3194 3194 3195 3195 3197 3198 3198 3199 3200
3155 3159 3162 3160 3158 3160 3162 3164 3164 3164 3165 3165 3167 3170 3169 3165 3165 3165 3167 3168 3169 3170 3172 3174 3175 3176 3177 3177 3178 3178 3180 3181 3183 3184 3186 3187 3189 3191 3192 3194 3195 3196 3196 3198 3199 3200 3201 3201 3201
3151 3155 3157 3155 3153 3157 3154 3158 3160 3161 3163 3165 3164 3167 3167 3164 3164 3164 3165 3167 3168 3169 3170 3172 3174 3175 3176 3177 3178 3179 3179 3181 3182 3183 3185 3187 3189 3191 3193 3195 3196 3197 3198 3199 3200 3201 3202 3202 3202
3149 3152 3151 3150 3150 3151 3150 3150 3153 3155 3159 3161 3161 3163 3164 3162 3162 3162 3163 3165 3166 3168 3168 3170 3172 3173 3175 3176 3177 3179 3180 3181 3182 3183 3185 3186 3188 3191 3193 3195 3197 3199 3200 3200 3201 3202 3203 3203 3203
3144 3148 3146 3146 3147 3148 3149 3146 3147 3152 3154 3156 3158 3160 3162 3159 3158 3160 3161 3163 3165 3166 3167 3167 3169 3171 3173 3174 3176 3177 3179 3180 3181 3182 3185 3185 3187 3189 3192 3195 3197 3199 3200 3201 3201 3202 3203 3203 3204
3140 3143 3143 3142 3143 3145 3145 3141 3143 3145 3148 3148 3150 3156 3161 3154 3155 3157 3159 3161 3163 3164 3165 3165 3167 3168 3171 3172 3174 3176 3177 3179 3181 3181 3183 3185 3187 3188 3190 3192 3195 3197 3199 3200 3201 3202 3203 3204 3204
3136 3139 3137 3139 3141 3142 3138 3139 3135 3138 3140 3142 3146 3148 3149 3149 3151 3152 3156 3157 3159 3161 3162 3163 3164 3166 3168 3170 3172 3174 3176 3177 3179 3182 3183 3184 3186 3188 3190 3192 3193 3195 3197 3198 3200 3201 3202 3203 3204
3131 3132 3134 3137 3137 3137 3136 3133 3135 3133 3137 3138 3139 3143 3145 3147 3148 3150 3152 3155 3156 3158 3159 3160 3161 3163 3165 3167 3169 3172 3175 3177 3178 3180 3181 3183 3186 3187 3189 3189 3190 3193 3195 3196 3198 3199 3200 3201 3202
3125 3127 3131 3130 3130 3129 3130 3130 3130 3130 3133 3134 3135 3139 3141 3143 3144 3146 3151 3151 3153 3155 3157 3158 3159 3160 3162 3164 3168 3171 3173 3174 3176 3177 3178 3180 3181 3183 3185 3188 3190 3190 3191 3193 3195 3197 3198 3199 3199
3122 3123 3123 3127 3124 3126 3126 3127 3126 3126 3127 3128 3130 3132 3136 3138 3141 3144 3148 3149 3150 3152 3154 3155 3157 3159 3160 3162 3165 3167 3169 3171 3173 3174 3176 3177 3178 3179 3182 3184 3186 3189 3190 3191 3192 3194 3194 3195 3196
3117 3120 3120 3121 3121 3122 3123 3123 3123 3122 3121 3122 3125 3126 3129 3134 3137 3140 3144 3147 3147 3149 3151 3152 3154 3156 3158 3161 3163 3164 3165 3167 3168 3169 3171 3174 3175 3176 3177 3179 3181 3182 3184 3186 3188 3189 3190 3191 3191
3116 3116 3118 3119 3119 3119 3120 3122 3120 3121 3118 3118 3120 3123 3127 3132 3135 3137 3139 3143 3143 3145 3147 3147 3151 3153 3157 3158 3159 3161 3162 3163 3164 3166 3168 3168 3170 3172 3173 3174 3176 3177 3177 3179 3180 3182 3184 3185 3185
3113 3114 3115 3115 3117 3119 3120 3119 3117 3119 3119 3117 3119 3122 3126 3129 3131 3133 3136 3140 3142 3145 3146 3146 3148 3150 3150 3154 3156 3157 3160 3161 3161 3162 3162 3163 3165 3167 3168 3168 3170 3171 3172 3172 3174 3175 3176 3177 3178
3111 3113 3113 3112 3114 3115 3117 3114 3114 3118 3117 3115 3118 3121 3124 3127 3128 3132 3136 3137 3140 3144 3147 3146 3148 3148 3148 3149 3151 3153 3154 3156 3158 3158 3159 3160 3161 3162 3160 3160 3163 3166 3167 3167 3167 3168 3169 3170 3170
3108 3106 3107 3108 3111 3111 3113 3112 3115 3114 3113 3114 3117 3119 3121 3124 3125 3129 3131 3134 3139 3139 3140 3142 3144 3145 3147 3146 3145 3146 3147 3150 3152 3153 3154 3154 3154 3156 3157 3155 3156 3158 3160 3162 3162 3162 3163 3164 3165
3102 3104 3104 3105 3107 3108 3110 3109 3109 3109 3109 3111 3113 3116 3118 3121 3125 3124 3125 3129 3132 3133 3135 3137 3137 3137 3140 3139 3140 3141 3143 3144 3146 3147 3148 3149 3149 3145 3143 3146 3152 3150 3151 3153 3153 3154 3156 3158 3159
3100 3100 3100 3102 3104 3105 3106 3105 3106 3106 3107 3108 3110 3112 3115 3118 3118 3118 3119 3123 3125 3126 3128 3130 3128 3128 3128 3132 3138 3137 3136 3137 3137 3139 3141 3142 3141 3140 3137 3136 3142 3143 3143 3146 3146 3147 3149 3149 3151
3096 3097 3098 3099 3100 3102 3102 3102 3103 3103 3104 3103 3103 3104 3109 3111 3112 3113 3114 3117 3120 3121 3123 3125 3125 3124 3125 3124 3128 3130 3132 3130 3130 3131 3132 3134 3134 3134 3133 3133 3133 3132 3135 3137 3136 3138 3139 3141 3143
3092 3093 3095 3097 3097 3098 3099 3099 3099 3100 3100 3099 3098 3097 3101 3105 3107 3109 3111 3112 3114 3117 3118 3120 3120 3120 3121 3122 3125 3127 3127 3128 3125 3125 3126 3127 3127 3128 3126 3122 3113 3123 3125 3129 3130 3130 3130 3131 3134
3087 3090 3092 3093 3095 3092 3093 3090 3090 3095 3096 3095 3096 3097 3099 3102 3104 3106 3108 3109 3110 3112 3114 3115 3116 3117 3118 3120 3122 3121 3123 3122 3121 3122 3121 3123 3123 3122 3120 3117 3117 3116 3117 3119 3123 3124 3123 3123 3125
3083 3087 3088 3088 3089 3088 3089 3091 3083 3089 3091 3092 3094 3095 3096 3098 3100 3102 3104 3106 3108 3109 3110 3110 3111 3112 3114 3115 3116 3117 3117 3117 3117 3117 3117 3117 3118 3117 3115 3112 3110 3110 3113 3114 3116 3115 3114 3114 3114
3079 3083 3084 3084 3084 3083 3082 3084 3078 3081 3086 3089 3090 3091 3093 3094 3096 3098 3099 3101 3102 3103 3104 3105 3105 3106 3108 3110 3111 3112 3112 3112 3112 3112 3112 3111 3110 3109 3107 3107 3106 3105 3105 3104 3104 3104 3103 3104 3102
3075 3077 3075 3076 3074 3071 3072 3077 3077 3078 3082 3087 3086 3087 3088 3090 3091 3093 3094 3095 3096 3097 3098 3100 3102 3103 3105 3105 3105 3106 3106 3105 3105 3105 3104 3104 3102 3102 3099 3099 3098 3096 3094 3093 3092 3092 3091 3090 3089
3067 3069 3064 3064 3060 3063 3071 3072 3074 3075 3080 3082 3082 3084 3085 3086 3088 3089 3090 3091 3093 3094 3095 3096 3098 3099 3100 3100 3100 3099 3098 3098 3098 3097 3095 3094 3093 3092 3089 3088 3086 3084 3083 3081 3080 3078 3077 3076 3074
3063 3063 3065 3065 3067 3065 3066 3068 3071 3072 3075 3077 3078 3080 3081 3083 3084 3085 3087 3088 3090 3092 3093 3093 3094 3095 3095 3094 3093 3092 3090 3089 3087 3085 3083 3081 3080 3077 3075 3072 3070 3069 3067 3065 3063 3061 3060 3060 3060
3059 3062 3064 3063 3065 3065 3060 3061 3064 3068 3070 3073 3075 3076 3078 3080 3081 3082 3084 3085 3087 3088 3089 3088 3088 3088 3087 3086 3085 3083 3080 3077 3074 3071 3068 3066 3063 3060 3058 3055 3052 3050 3048 3046 3044 3043 3042 3041 3042
3055 3057 3060 3062 3064 3061 3059 3058 3062 3064 3068 3069 3072 3073 3074 3076 3077 3079 3080 3082 3082 3083 3083 3082 3081 3080 3079 3077 3074 3072 3069 3065 3062 3059 3055 3050 3045 3042 3038 3036 3033 3031 3028 3026 3025 3023 3023 3022 3022
3049 3051 3054 3056 3060 3059 3057 3059 3061 3063 3066 3067 3069 3069 3071 3072 3074 3076 3077 3077 3077 3077 3076 3074 3073 3072 3069 3067 3063 3059 3054 3050 3045 3041 3038 3034 3029 3026 3021 3017 3013 3011 3009 3007 3006 3004 3004 3004 3004